Regional Weather Roundup
Issued by NWS

Home | Current Version | Previous Version | Graphics & Text | Print | Product List | Glossary On
Versions: 1 2 3 4 5 6 7 8 9 10 11 12 13 14 15 16 17 18 19 20 21 22 23 24 25 26 27 28 29 30 31 32 33 34 35 36 37 38 39 40 41 42 43 44 45 46 47 48 49 50
000
ASUS45 KSLC 192210
RWRUT

UTAH REGIONAL WEATHER ROUNDUP
NATIONAL WEATHER SERVICE SALT LAKE CITY UT
300 PM MST FRI DEC 19 2014

UTZ001>011-023>025-192300-

NORTHERN UTAH

CITY           SKY/WX    TMP DP  RH WIND       PRES   REMARKS
BRIGHAM CITY   CLOUDY    44  28  53 SW8       30.13R
HILL AFB       PTSUNNY   44  26  48 S13       30.11S
LOGAN          CLOUDY    42  28  57 CALM      30.10F
OGDEN          CLOUDY    45  27  49 S14       30.11S
PROVO AIRPORT  PTSUNNY   43  27  52 SE3       30.15F
SALT LAKE CITY PTSUNNY   46  26  45 S15G21    30.11F
VERNAL         CLOUDY    30  21  69 CALM      30.21S
WENDOVER       PTSUNNY   37  27  65 E8        30.10F WCI  31
HEBER CITY     PTSUNNY   41  27  56 CALM      30.11F
WEST JORDAN    CLOUDY    43  30  61 S16G22    30.12F

$$

UTZ012>022-026-027-192300-

SOUTHERN/CENTRAL UTAH

CITY           SKY/WX    TMP DP  RH WIND       PRES   REMARKS
BLANDING       PTSUNNY   37  29  74 S6        30.26S WCI  32
BRYCE CANYON   SUNNY     33  21  61 SE10      30.17S WCI  25
CEDAR CITY     SUNNY     44  24  45 S17       30.14F
DELTA          PTSUNNY   44  25  48 SE5       30.13F
MILFORD        SUNNY     47  24  40 S21       30.12F
MOAB/CYNLANDS  MOSUNNY   39  31  72 N5        30.19S
PRICE          PTSUNNY   32  24  72 E6        30.19F WCI  26
ST GEORGE      MOCLDY    48  34  57 CALM      30.21F
KANAB          SUNNY     43  30  61 SW5       30.23S

$$

REGIONAL REPORTS     COLORADO/ARIZONA

CITY           SKY/WX    TMP DP  RH WIND       PRES   REMARKS
CRAIG, CO      MOSUNNY   27  21  78 CALM      30.18S
GRAND JUNCTION PTSUNNY   38  27  64 N3        30.19F
RIFLE          PTSUNNY   37  25  61 W7        30.19F WCI  32
MONTROSE       MOSUNNY   40  21  46 N5        30.21R
CORTEZ         SUNNY     40  27  59 W9        30.17S WCI  34
PAGE, AZ       PTSUNNY   43  31  62 E5        30.20S
GRAND CANYON   PTSUNNY   41  29  62 W3        30.19S
KINGMAN        SUNNY     54  30  40 W7        30.18S
FLAGSTAFF      MOSUNNY   38  25  59 SW3       30.19R

$$

REGIONAL REPORTS    NEVADA/IDAHO/WYOMING

CITY           SKY/WX    TMP DP  RH WIND       PRES   REMARKS
LAS VEGAS, NV  MOSUNNY   54  38  54 SE3       30.14F
ELY            MOSUNNY   44  25  47 S7        30.11F
ELKO           CLOUDY    44  28  53 W8        30.08R
POCATELLO, ID  CLOUDY    40  30  67 S21G29    30.06S WCI  30
BURLEY         LGT RAIN  41  33  73 NW7       30.06R
EVANSTON, WY   CLOUDY    35  21  56 SW14      30.08F WCI  26
ROCK SPRINGS   CLOUDY    33  22  63 W17       30.10R WCI  22
KEMMERER       PTSUNNY   34  21  60 W9        30.08F WCI  26

$$


USA.gov is the U.S. government's official web portal to all federal, state and local government web resources and services.